Weather History for Robinson, IL

Change the Weather History Date:

Wednesday, January 23, 2013

  Actual Average (KLWV) Record (KLWV)
Temperature  
Mean Temperature 25 °F 31 °F  
Max Temperature 36 °F 39 °F 60 °F (2002)
Min Temperature 14 °F 23 °F 1 °F (2003)
Degree Days  
Heating Degree Days 40 34  
Month to date heating degree days 782  
Since 1 July heating degree days 2581  
Cooling Degree Days 0 0  
Month to date cooling degree days 0  
Year to date cooling degree days 0  
Moisture  
Dew Point 13 °F    
Average Humidity 58    
Maximum Humidity 75    
Minimum Humidity 41    
Precipitation  
Precipitation 0.00 in 0.06 in 1.72 in (1982)
Month to date precipitation 1.89  
Year to date precipitation 1.89  
Sea Level Pressure  
Sea Level Pressure 30.27 in    
Wind  
Wind Speed 4 mph (SSW)    
Max Wind Speed 23 mph    
Max Gust Speed 30 mph    
Visibility 10 miles    
Events      
T = Trace of Precipitation, MM = Missing Value Source: NWS Daily Summary

Daily Weather History Graph

Daily Weather History Graph

Search for Another Location

Airport:

Trip Planner

Search our weather history database for the weather conditions in past years. The results will help you decide how hot, cold, wet, or windy it might be!

Date:

Astronomy

Jan. 23, 2013 Rise Set
Actual Time 7:03 AM CST 5:01 PM CST
Civil Twilight 6:35 AM CST 5:30 PM CST
Nautical Twilight 6:02 AM CST 6:02 PM CST
Astronomical Twilight 5:30 AM CST 6:34 PM CST
Moon 2:12 PM CST (1/23) 4:14 AM CST (1/23)
Length of Visible Light 10h 55m
Length of Day
9h 57m
Waxing Gibbous, 89% of the Moon is Illuminated
Jan 23
Waxing Gibbous
Jan 26
Full
Feb 3
Last Quarter
Feb 10
New
Feb 17
First Quarter

Hourly Weather History & Observations

Time (CST) Temp. Windchill Dew Point Humidity Pressure Visibility Wind Dir Wind Speed Gust Speed Precip Events Conditions
12:15 AM 14.4 °F - 5.9 °F 69% 30.40 in 10.0 mi Calm Calm - N/A   Scattered Clouds
12:35 AM 14.7 °F - 5.5 °F 67% 30.40 in 10.0 mi Calm Calm - N/A   Overcast
12:55 AM 14.0 °F - 7.5 °F 75% 30.40 in 10.0 mi Calm Calm - N/A   Overcast
1:32 AM 15.8 °F - 8.6 °F 73% 30.39 in 10.0 mi Calm Calm - N/A   Overcast
1:53 AM 17.6 °F - 8.6 °F 68% 30.39 in 10.0 mi Calm Calm - N/A   Overcast
2:12 AM 17.6 °F - 8.6 °F 68% 30.39 in 10.0 mi Calm Calm - N/A   Overcast
2:15 AM 18.1 °F - 7.7 °F 64% 30.39 in 10.0 mi Calm Calm - N/A   Overcast
2:55 AM 18.5 °F - 4.6 °F 55% 30.39 in 10.0 mi Calm Calm - N/A   Overcast
3:37 AM 19.4 °F - 5.0 °F 54% 30.37 in 10.0 mi Calm Calm - N/A   Overcast
3:52 AM 19.4 °F - 5.0 °F 54% 30.37 in 10.0 mi Calm Calm - N/A   Overcast
4:15 AM 18.0 °F - 8.4 °F 66% 30.36 in 10.0 mi Calm Calm - N/A   Overcast
4:35 AM 18.9 °F - 8.2 °F 63% 30.36 in 10.0 mi Calm Calm - N/A   Overcast
4:55 AM 19.2 °F 14.1 °F 7.5 °F 60% 30.36 in 10.0 mi SE 3.5 mph - N/A   Overcast
5:15 AM 19.2 °F - 7.2 °F 59% 30.36 in 10.0 mi Calm Calm - N/A   Overcast
5:35 AM 19.4 °F - 7.7 °F 60% 30.36 in 10.0 mi Calm Calm - N/A   Overcast
5:55 AM 19.8 °F 13.2 °F 8.6 °F 62% 30.36 in 10.0 mi SE 4.6 mph - N/A   Overcast
6:15 AM 19.8 °F - 7.3 °F 59% 30.37 in 10.0 mi Calm Calm - N/A   Overcast
6:35 AM 19.9 °F 14.9 °F 7.7 °F 59% 30.36 in 10.0 mi ESE 3.5 mph - N/A   Overcast
6:55 AM 20.1 °F 15.2 °F 7.2 °F 57% 30.36 in 10.0 mi ESE 3.5 mph - N/A   Overcast
7:15 AM 20.3 °F 13.8 °F 7.9 °F 59% 30.36 in 10.0 mi ESE 4.6 mph - N/A   Overcast
7:55 AM 20.8 °F 14.4 °F 8.1 °F 58% 30.36 in 10.0 mi SE 4.6 mph - N/A   Overcast
8:15 AM 21.2 °F 13.6 °F 7.7 °F 56% 30.36 in 10.0 mi SE 5.8 mph - N/A   Mostly Cloudy
8:35 AM 22.1 °F 13.7 °F 8.6 °F 56% 30.36 in 10.0 mi SSE 6.9 mph - N/A   Scattered Clouds
8:55 AM 23.2 °F 13.3 °F 9.1 °F 55% 30.35 in 10.0 mi SSE 9.2 mph - N/A   Clear
9:35 AM 24.8 °F 16.1 °F 9.7 °F 53% 30.35 in 10.0 mi SSE 8.1 mph - N/A   Clear
9:55 AM 26.1 °F 17.6 °F 10.0 °F 51% 30.35 in 10.0 mi South 8.1 mph - N/A   Clear
10:15 AM 26.8 °F 21.4 °F 9.9 °F 49% 30.34 in 10.0 mi SSW 4.6 mph - N/A   Clear
10:35 AM 27.9 °F 19.1 °F 8.8 °F 45% 30.32 in 10.0 mi South 9.2 mph - N/A   Clear
10:55 AM 29.3 °F 19.1 °F 9.3 °F 43% 30.31 in 10.0 mi South 12.7 mph - N/A   Clear
11:15 AM 30.4 °F 22.9 °F 9.5 °F 42% 30.30 in 10.0 mi SSW 8.1 mph - N/A   Clear
11:55 AM 31.1 °F 24.5 °F 10.8 °F 43% 30.26 in 10.0 mi SSE 6.9 mph - N/A   Clear
12:15 PM 32.0 °F 27.5 °F 11.8 °F 43% 30.25 in 10.0 mi South 4.6 mph - N/A   Clear
12:35 PM 32.7 °F 25.0 °F 12.6 °F 43% 30.23 in 10.0 mi SSW 9.2 mph 16.1 mph N/A   Clear
12:55 PM 33.4 °F 26.6 °F 12.9 °F 43% 30.22 in 10.0 mi South 8.1 mph - N/A   Clear
1:15 PM 34.0 °F 26.6 °F 13.8 °F 44% 30.20 in 10.0 mi SSW 9.2 mph - N/A   Clear
1:55 PM 35.1 °F 28.6 °F 13.3 °F 41% 30.18 in 10.0 mi SW 8.1 mph - N/A   Clear
2:15 PM 35.8 °F 27.8 °F 15.3 °F 43% 30.18 in 10.0 mi SW 11.5 mph - N/A   Clear
2:35 PM 35.8 °F 29.4 °F 15.4 °F 44% 30.17 in 10.0 mi SSW 8.1 mph - N/A   Clear
2:55 PM 36.0 °F 30.3 °F 15.6 °F 44% 30.17 in 10.0 mi South 6.9 mph - N/A   Clear
3:15 PM 36.5 °F 29.7 °F 17.1 °F 45% 30.16 in 10.0 mi SSW 9.2 mph - N/A   Clear
3:55 PM 35.8 °F 27.8 °F 18.1 °F 49% 30.15 in 10.0 mi SW 11.5 mph - N/A   Clear
4:15 PM 35.2 °F 28.8 °F 19.0 °F 52% 30.15 in 10.0 mi SSW 8.1 mph - N/A   Clear
4:35 PM 34.3 °F 27.7 °F 19.2 °F 54% 30.15 in 10.0 mi SW 8.1 mph - N/A   Clear
4:55 PM 32.9 °F 26.7 °F 19.4 °F 58% - 10.0 mi SW 6.9 mph - N/A   Clear
5:15 PM 30.9 °F 25.2 °F 20.3 °F 65% 30.14 in 10.0 mi SSW 5.8 mph - N/A   Clear
5:35 PM 31.3 °F - 19.4 °F 61% 30.15 in 10.0 mi Calm Calm - N/A   Clear
5:55 PM 31.6 °F - 19.6 °F 61% 30.14 in 10.0 mi Calm Calm - N/A   Clear
6:15 PM 28.9 °F - 19.6 °F 68% 30.15 in 10.0 mi Calm Calm - N/A   Clear
6:35 PM 30.6 °F 24.7 °F 20.5 °F 66% 30.15 in 10.0 mi WSW 5.8 mph - N/A   Clear
6:55 PM 30.0 °F 21.7 °F 21.0 °F 69% 30.16 in 10.0 mi West 9.2 mph - N/A   Clear
7:15 PM 31.6 °F 23.7 °F 21.6 °F 66% 30.16 in 10.0 mi WSW 9.2 mph - N/A   Clear
7:35 PM 32.0 °F 23.6 °F 21.7 °F 66% 30.16 in 10.0 mi WSW 10.4 mph - N/A   Clear
7:55 PM 31.8 °F 23.3 °F 22.1 °F 67% 30.17 in 10.0 mi WSW 10.4 mph - N/A   Clear
8:15 PM 31.8 °F 23.3 °F 22.1 °F 67% 30.17 in 10.0 mi WSW 10.4 mph - N/A   Clear
8:35 PM 31.3 °F 23.3 °F 22.3 °F 69% 30.17 in 10.0 mi WSW 9.2 mph - N/A   Clear
8:55 PM 32.0 °F 23.0 °F 22.5 °F 68% 30.19 in 10.0 mi West 11.5 mph - N/A   Clear
9:15 PM 31.8 °F 22.8 °F 22.1 °F 67% 30.19 in 10.0 mi West 11.5 mph - N/A   Clear
9:35 PM 32.2 °F 22.3 °F 21.7 °F 65% 30.20 in 10.0 mi WNW 13.8 mph 19.6 mph N/A   Clear
9:55 PM 32.0 °F 22.5 °F 20.7 °F 63% 30.21 in 10.0 mi NW 12.7 mph 21.9 mph N/A   Clear
10:15 PM 31.6 °F 19.7 °F 19.2 °F 60% 30.23 in 10.0 mi WNW 19.6 mph 29.9 mph N/A   Clear
10:35 PM 30.4 °F 19.1 °F 19.4 °F 64% 30.24 in 10.0 mi WNW 16.1 mph 20.7 mph N/A   Clear
10:55 PM 29.7 °F 18.6 °F 19.0 °F 65% 30.25 in 10.0 mi NW 15.0 mph 18.4 mph N/A   Clear
11:15 PM 29.1 °F 18.9 °F 18.5 °F 65% 30.27 in 10.0 mi NW 12.7 mph 18.4 mph N/A   Clear
11:35 PM 28.6 °F 17.7 °F 17.4 °F 63% - 10.0 mi NW 13.8 mph 20.7 mph N/A   Scattered Clouds
11:55 PM 27.5 °F 13.2 °F 13.5 °F 56% 30.29 in 10.0 mi NNW 23.0 mph 29.9 mph N/A   Mostly Cloudy